History for Miami, FL

Tuesday, November 6, 2012 — View Current Conditions

Jump to Data:

Date:
Airport Code:
Recently Viewed Airport Codes: KMIA
Daily Summary
  Actual Average Record
Temperature
Mean Temperature 75°F 76°F  
Max Temperature 83°F 83°F 91°F (2002)
Min Temperature 67°F 70°F 48°F (1950)
Degree Days
Heating Degree Days 0 0  
Month to date heating degree days 0 0  
Since 1 July heating degree days 0 0  
Cooling Degree Days 10 11  
Month to date cooling degree days 45 71  
Year to date cooling degree days 4284 4143  
Growing Degree Days 24 (Base 50)    
Moisture
Dew Point 63°F    
Average Humidity 68    
Maximum Humidity 93    
Minimum Humidity 43    
Precipitation
Precipitation 0.00 in 0.13 in 1.43 in (2003)
Month to date precipitation 0.00 0.82  
Year to date precipitation 85.93 57.41  
Snow
Snow 0.00 in in in ()
Month to date snowfall 0.0  
Since 1 July snowfall 0.0  
Since 1 September snowfall 0.0  
Snow Depth 0.00 in    
Sea Level Pressure
Sea Level Pressure 29.91 in    
Wind
Wind Speed 4 mph (WSW)    
Max Wind Speed 18 mph    
Max Gust Speed 23 mph    
Visibility 10 miles    
Events      
T = Trace of Precipitation, MM = Missing Value Source: NWS Daily Summary

Show full METARS

(help) - Comma Delimited File

Hourly Observations

Time(EST) Temperature Dew Point Humidity Sea Level Pressure Visibility Wind Direction Wind Speed Gust Speed Precipitation Events Conditions
12:53 AM 72.0°F 61.0°F 68% 29.95 in 10.0 miles Calm Calm - N/A   Mostly Cloudy
1:53 AM 72.0°F 64.0°F 76% 29.94 in 10.0 miles Calm Calm - N/A   Overcast
2:53 AM 70.0°F 64.9°F 84% 29.92 in 10.0 miles Calm Calm - N/A   Mostly Cloudy
3:53 AM 70.0°F 64.9°F 84% 29.91 in 10.0 miles Calm Calm - N/A   Mostly Cloudy
4:53 AM 68.0°F 64.9°F 90% 29.91 in 10.0 miles Calm Calm - N/A   Mostly Cloudy
5:53 AM 69.1°F 66.0°F 90% 29.93 in 10.0 miles Calm Calm - N/A   Mostly Cloudy
6:53 AM 68.0°F 66.2°F 94% 29.94 in 10.0 miles Calm Calm - N/A   Mostly Cloudy
7:53 AM 71.1°F 68.0°F 90% 29.96 in 10.0 miles Calm Calm - N/A   Mostly Cloudy
8:53 AM 73.0°F 66.0°F 79% 29.96 in 10.0 miles Calm Calm - N/A   Mostly Cloudy
9:53 AM 75.0°F 63.0°F 66% 29.96 in 10.0 miles SSW 4.6 mph - N/A   Mostly Cloudy
10:53 AM 78.1°F 61.0°F 56% 29.95 in 10.0 miles WSW 9.2 mph - N/A   Mostly Cloudy
11:53 AM 81.0°F 63.0°F 54% 29.92 in 10.0 miles SW 11.5 mph 18.4 mph N/A   Scattered Clouds
12:53 PM 82.0°F 60.1°F 47% 29.88 in 10.0 miles SW 11.5 mph 20.7 mph N/A   Scattered Clouds
1:53 PM 82.0°F 57.0°F 42% 29.86 in 10.0 miles SW 11.5 mph 19.6 mph N/A   Scattered Clouds
2:53 PM 82.0°F 59.0°F 45% 29.85 in 10.0 miles WSW 11.5 mph 21.9 mph N/A   Scattered Clouds
3:53 PM 82.0°F 60.1°F 47% 29.86 in 10.0 miles WSW 13.8 mph 20.7 mph N/A   Scattered Clouds
4:53 PM 80.1°F 54.0°F 40% 29.86 in 10.0 miles WSW 11.5 mph - N/A   Mostly Cloudy
5:53 PM 78.1°F 61.0°F 56% 29.87 in 10.0 miles West 8.1 mph - N/A   Mostly Cloudy
6:53 PM 75.0°F 64.0°F 69% 29.88 in 10.0 miles Calm Calm - N/A   Overcast
7:53 PM 73.9°F 64.9°F 73% 29.89 in 10.0 miles West 5.8 mph - N/A   Scattered Clouds
8:53 PM 73.9°F 64.9°F 73% 29.90 in 10.0 miles SW 4.6 mph - N/A   Partly Cloudy
9:53 PM 73.0°F 64.9°F 76% 29.89 in 10.0 miles SW 4.6 mph - N/A   Partly Cloudy
10:53 PM 72.0°F 64.9°F 78% 29.89 in 10.0 miles WSW 5.8 mph - N/A   Partly Cloudy
11:53 PM 72.0°F 66.0°F 81% 29.88 in 10.0 miles WSW 4.6 mph - N/A   Mostly Cloudy